Location: Remedello Sotto
(45.2500°N, 10.3667°E)
Time: 18:59:43
(UTC+00:00)

Cosmos 407 Rocket - Visible Passes

Search period start: 01 October 2023 00:00
Search period end: 11 October 2023 00:00
Orbit: 741 x 786 km, 74.0° (Epoch: 30 September)

Date Brightness Start Highest point End Pass type
(mag) Time Alt. Az. Time Alt. Az. Time Alt. Az.
01 Oct 5.7 19:38:29 15° NNE 19:38:29 15° NNE 19:39:19 10° NNE visible
01 Oct 6.1 21:18:34 16° NNW 21:18:34 16° NNW 21:20:19 10° N visible
02 Oct 5.8 04:12:38 10° N 04:17:06 26° NE 04:21:32 10° ESE visible
02 Oct 5.3 18:59:26 17° NE 18:59:26 17° NE 19:00:44 10° NE visible
02 Oct 5.5 20:39:27 25° NNW 20:39:27 25° NNW 20:42:28 10° N visible
03 Oct 6.3 03:34:53 10° N 03:38:20 17° NE 03:41:46 10° E visible
03 Oct 4.4 18:13:24 10° SSE 18:17:36 25° E 18:21:50 10° NE visible
03 Oct 4.4 19:54:13 10° SW 19:59:15 46° WNW 20:04:23 10° N visible
04 Oct 6.6 02:57:59 10° NNE 02:59:25 11° NE 03:00:52 10° ENE visible
04 Oct 4.3 04:37:17 10° NNW 04:42:36 59° ENE 04:47:51 10° SE visible
04 Oct 5.0 17:36:48 10° SE 17:39:33 14° E 17:42:19 10° ENE visible
04 Oct 3.6 19:15:32 10° SSW 19:20:46 77° WNW 19:26:07 10° NNE visible
04 Oct 6.3 21:01:04 10° WNW 21:03:42 14° NW 21:06:21 10° NNW visible
05 Oct 5.2 03:59:07 10° N 04:04:03 36° ENE 04:08:57 10° SE visible
05 Oct 3.4 18:37:14 10° S 18:42:25 63° ESE 18:47:40 10° NNE visible
05 Oct 5.8 20:20:55 10° WSW 20:24:52 21° NW 20:28:51 10° N visible
06 Oct 5.9 03:21:08 10° N 03:25:23 23° NE 03:29:36 10° ESE visible
06 Oct 4.0 17:59:23 10° SSE 18:04:09 37° ESE 18:09:00 10° NE visible
06 Oct 5.2 19:41:26 10° WSW 19:46:09 32° WNW 19:50:57 10° N visible
07 Oct 6.4 02:43:29 10° NNE 02:46:35 15° NE 02:49:40 10° E visible
07 Oct 3.6 04:24:01 10° NNW 04:29:24 86° ENE 04:34:43 10° SSE visible
07 Oct 4.6 17:22:05 10° SE 17:26:02 22° E 17:30:01 10° NE visible
07 Oct 4.3 19:02:27 10° SW 19:07:35 53° WNW 19:12:48 10° NNE visible
08 Oct 4.4 03:45:42 10° NNW 03:50:57 52° ENE 03:56:07 10° SE visible
08 Oct 3.5 18:23:51 10° SSW 18:29:07 87° WNW 18:34:29 10° NNE visible
08 Oct 6.3 20:08:53 10° W 20:11:56 15° NW 20:15:01 10° NNW visible
09 Oct 5.3 03:07:33 10° N 03:12:22 32° ENE 03:17:07 10° ESE visible
09 Oct 4.1 04:49:28 10° NW 04:54:23 38° WSW 04:59:13 10° SSW visible
09 Oct 3.6 17:45:40 10° S 17:50:47 55° ESE 17:56:00 10° NNE visible
09 Oct 5.8 19:28:56 10° WSW 19:33:07 23° NW 19:37:22 10° N visible
10 Oct 5.9 02:29:38 10° N 02:33:39 21° NE 02:37:38 10° ESE visible
10 Oct 3.5 04:10:49 10° NNW 04:16:07 65° WSW 04:21:21 10° S visible
10 Oct 4.2 17:07:56 10° SSE 17:12:34 32° E 17:17:16 10° NE visible
10 Oct 5.0 18:49:35 10° SW 18:54:27 36° WNW 18:59:23 10° N visible
